Lid_Strength_Index
5 7 8 7 13 15 17 14 13 12 11 10 8 8 9 11 10 12 6 9 9 0 -0 -0 -1 -1 -1 -1 -1 -1 -1 -1 -1 -1 -1 -1 -1 -1 -1 -1 -1 -1 -1 -1 -1 -1 -1 -1 -1
6 7 7 10 15 18 16 14 13 11 10 10 7 7 10 11 11 10 12 10 9 -0 -0 -0 -1 -1 -1 -1 -1 -1 -1 -1 -1 -1 -1 -1 -1 -1 -2 -1 -1 -1 -1 -1 -1 -1 -1 -1 -1
10 7 10 13 16 18 16 14 13 11 10 10 9 9 14 15 12 13 12 10 9 -0 -0 -0 -0 -2 -2 -1 -1 -1 -1 -1 -1 -1 -1 -1 -1 -2 -2 -2 -2 -2 -1 -1 -1 -1 -1 -1 -1
10 8 10 14 16 15 15 13 12 12 10 10 9 15 13 13 14 13 12 11 11 6 -0 -0 -0 -2 -2 -2 -2 -1 -1 -1 -1 -1 -1 -1 -1 -2 -2 -2 -2 -2 -2 -2 -2 -1 -1 -1 -1
8 10 13 14 15 14 14 13 12 11 11 11 9 10 13 13 12 12 12 11 11 8 2 -0 -0 -1 -1 -2 -2 -2 -1 -1 -1 -1 -1 -1 -2 -2 -2 -2 -2 -2 -2 -2 -2 -1 -1 -1 -1
10 11 14 15 15 12 12 12 11 11 10 10 12 10 14 12 13 13 12 12 11 10 9 8 6 -0 -0 -1 -1 -1 -1 -1 -1 -1 -1 -1 -1 -1 -2 -2 -2 -2 -2 -2 -2 -1 -1 -1 -1
10 12 13 13 13 12 13 12 13 13 11 13 13 13 13 13 12 11 12 12 12 11 9 8 7 6 3 -0 0 -0 -1 -1 -1 -1 -1 -1 -1 -1 -1 -1 -2 -2 -2 -2 -2 -1 -2 -1 -1
8 10 13 15 13 15 14 13 14 15 13 13 14 17 17 14 12 11 11 11 10 9 8 8 6 4 4 3 1 1 1 -0 -1 -0 0 1 0 -0 -0 -0 -1 -2 -2 -2 -2 -2 -2 -1 -2
7 12 14 15 14 15 15 16 15 15 15 15 14 15 14 12 11 11 11 10 9 8 8 7 5 3 3 3 3 1 1 1 1 1 1 1 -0 -0 0 0 -0 -1 -1 -2 -2 -2 -2 -1 -1
11 14 16 16 17 17 16 17 17 17 16 17 17 15 13 12 13 12 12 12 11 10 9 8 6 4 4 3 4 5 3 1 -0 -0 -0 -0 -0 0 0 1 2 -0 -0 -1 -2 -2 -1 -1 0
15 15 16 17 16 16 16 17 16 17 18 17 17 16 14 13 13 13 12 12 12 11 10 9 8 6 5 4 4 4 3 5 4 3 0 -0 -0 -0 1 1 1 1 2 -0 -0 -0 -0 -0 1
16 16 15 15 15 16 17 16 17 16 16 14 15 15 14 13 13 13 12 12 11 11 10 10 9 8 7 6 6 5 5 4 6 5 2 0 -0 0 0 1 1 2 2 1 1 2 1 1 1
17 17 16 15 15 16 15 16 17 16 15 14 14 13 14 14 14 13 12 12 11 11 11 10 10 10 8 7 7 7 6 5 4 4 4 5 5 3 -0 0 1 2 2 2 2 2 2 2 1
17 16 16 16 16 15 16 17 16 15 15 15 14 14 14 13 13 13 13 12 12 11 11 10 10 10 9 8 8 7 7 6 5 4 5 5 5 5 6 2 1 2 2 2 2 2 2 2 2
16 17 16 17 16 16 16 17 17 15 15 15 15 16 14 13 12 13 12 12 12 11 11 11 10 9 10 9 8 7 6 6 5 4 4 4 4 6 6 6 7 5 2 2 2 2 2 2 2
18 18 20 17 16 16 17 18 15 15 16 15 15 16 15 14 13 13 12 12 12 12 11 11 10 10 10 9 8 7 6 5 5 4 4 3 3 5 6 6 6 6 7 3 2 2 3 3 3
19 21 20 18 16 17 17 18 16 15 16 16 16 16 15 14 13 13 13 12 12 11 11 11 11 11 10 9 8 6 6 6 5 5 5 4 3 3 5 5 7 6 6 6 3 2 2 3 4
22 22 20 20 18 18 19 18 16 15 15 16 16 16 15 15 13 13 12 11 11 11 11 11 11 10 10 9 8 7 6 6 6 6 5 5 4 4 4 5 7 7 6 7 6 7 2 2 4
20 21 22 19 17 19 19 18 16 16 16 16 17 16 16 15 13 13 12 12 11 11 11 11 11 10 10 9 9 9 9 8 7 6 6 6 5 4 4 5 5 6 7 7 7 7 7 8 3
20 21 22 19 18 19 19 19 16 17 17 16 16 17 16 15 14 13 12 12 12 12 12 11 11 10 9 8 8 8 8 7 7 6 6 6 6 6 6 6 6 5 6 7 7 7 7 7 4
21 21 22 21 19 20 21 20 18 17 17 17 16 15 15 14 14 14 13 13 13 13 12 11 10 9 8 8 8 8 8 8 8 8 8 7 6 6 6 6 6 6 6 5 7 6 7 8 7
21 20 20 20 22 23 21 23 20 19 18 17 16 16 15 15 14 13 13 13 13 12 12 11 10 10 8 8 9 9 9 10 9 8 8 8 7 6 6 6 6 6 6 6 6 5 7 7 8
20 19 20 20 23 23 23 24 20 19 18 17 16 16 15 15 14 13 13 13 12 12 12 12 11 10 9 8 9 9 9 8 8 8 9 8 8 7 6 6 6 7 7 6 5 5 6 6 7
18 20 20 21 22 26 23 23 20 19 17 18 16 16 15 15 14 14 13 12 12 12 12 11 11 10 9 9 9 9 9 9 9 9 9 9 9 8 8 7 7 6 6 6 6 5 6 6 7
19 21 24 24 25 23 22 23 19 17 16 16 16 16 15 15 15 14 14 13 13 12 12 12 11 11 9 9 9 9 9 9 9 9 9 10 10 9 9 8 8 8 7 6 6 6 6 5 6
21 21 23 26 25 23 21 23 18 16 16 15 15 16 15 15 14 14 13 13 13 13 13 12 11 11 10 9 9 9 9 9 10 10 10 10 10 10 9 9 8 8 7 6 6 6 6 6 6
20 23 21 24 26 26 22 20 17 16 16 16 16 15 15 15 15 14 13 13 13 13 13 12 12 10 10 9 9 9 10 10 10 10 10 10 9 8 8 8 8 7 7 7 7 7 7 6 6
20 18 23 24 28 29 23 22 19 17 17 16 16 16 15 15 14 14 14 13 13 13 13 12 11 11 10 10 10 10 9 9 9 9 9 8 7 6 6 6 7 8 9 8 8 8 7 7 6
21 22 23 23 23 25 26 23 18 17 16 16 16 16 15 15 15 14 14 14 14 13 13 12 12 11 10 10 10 10 10 9 8 8 7 6 6 5 5 5 5 5 6 6 8 9 8 8 7
20 21 21 24 25 24 23 23 16 16 16 16 16 15 15 15 15 15 15 14 14 14 13 12 11 11 11 11 11 11 10 9 8 8 8 7 6 5 6 6 5 5 4 4 5 7 8 8 7